Regional Weather Roundup
Issued by NWS Cleveland, OH

Home | Current Version | Previous Version | Text Only | Print | Product List | Glossary On
Versions: 1 2 3 4 5 6 7 8 9 10 11 12 13 14 15 16 17 18 19 20 21 22 23 24 25 26 27 28 29 30 31 32 33 34 35 36 37 38 39 40 41 42 43 44 45 46 47 48 49 50
000
ASUS41 KCLE 180212
RWRCLE
OHIO REGIONAL WEATHER ROUNDUP
NATIONAL WEATHER SERVICE WILMINGTON, OH
900 PM EST WED JAN 17 2018

NOTE: "FAIR" INDICATES FEW OR NO CLOUDS BELOW 12,000 FEET WITH NO
SIGNIFICANT WEATHER AND/OR OBSTRUCTIONS TO VISIBILITY.

OHZ001>008-015>018-024>027-034-035-043-044-180300-
   NORTHWEST OHIO

CITY           SKY/WX    TMP DP  RH WIND       PRES   REMARKS
DEFIANCE       FAIR      15   8  73 SW14G22   30.34F WCI   0
FINDLAY        FAIR      15   6  67 SW14      30.34F WCI   0
TOLEDO EXPRESS FAIR      16  10  77 SW14      30.30F WCI   2
TOLEDO EXEC    FAIR      16   8  71 SW16      30.32F WCI   1
LIMA           FAIR      13   8  81 SW15      30.35F WCI  -3
$$

OHZ009>014-019>023-028>033-038-089-180300-
   NORTHEAST OHIO

CITY           SKY/WX    TMP DP  RH WIND       PRES   REMARKS
CLE-HOPKINS    FAIR      16   7  67 SW12      30.34F WCI   3
CLE-LAKEFRONT  FAIR      17   7  64 SW17      30.32F WCI   1
CUY CO. ARPT   CLEAR     18   9  68 SW12G21   30.31F WCI   5
LORAIN-ELYRIA  FAIR      13   4  67 W15       30.33F WCI  -3
ASHTABULA      FAIR      11   5  77 SW10      30.29F WCI  -3
AKRON-CANTON   FAIR       8   3  80 SW13      30.32F WCI  -8
WOOSTER        FAIR       9   5  84 SW12      30.33F WCI  -6
MANSFIELD      FAIR      12   7  80 SW14      30.32F WCI  -3
YOUNGSTOWN     FAIR       9   3  77 SW10      30.30F WCI  -5
$$

OHZ042-051>053-060>062-070>072-077>081-180300-
  SOUTHWEST OHIO

CITY           SKY/WX    TMP DP  RH WIND       PRES   REMARKS
CINC-COVINGTON FAIR      14  10  84 SW8       30.46F WCI   3
CINC-LUNKEN    FAIR      14   9  80 S8        30.51F WCI   3
HAMILTON       FAIR      13   9  84 SW3       30.49F
DAYTON         FAIR      11   7  84 SW12      30.42F WCI  -3
WRIGHT-PAT AFB CLEAR     12   3  67 SW10      30.42F WCI  -1
DAYTON GENERAL FAIR      15   8  73 SW7       30.43F WCI   5
WILMINGTON     FAIR       7   5  91 SW7       30.42F WCI  -5
$$

OHZ036-037-039>041-045>050-054>059-063>069-073>076-082>088-180300-
  CENTRAL AND SOUTHEAST OHIO

CITY           SKY/WX    TMP DP  RH WIND       PRES   REMARKS
COLUMBUS       FAIR       9   4  80 S7        30.42F WCI  -2
OSU AIRPORT    FAIR      11   7  84 SW7       30.40F WCI   0
BOLTON FIELD   FAIR       6   3  87 SW7       30.42F WCI  -6
RICKENBACK AFB FAIR       9   5  84 SW8       30.43F WCI  -4
NEWARK         FAIR       5   1  83 S6        30.41F WCI  -6
MARION         FAIR      11   6  81 SW10      30.37F WCI  -3
LANCASTER      FAIR       7   2  80 S6        30.42F WCI  -3
ZANESVILLE     FAIR       7   2  80 S7        30.41F WCI  -5
NEW PHILLY     FAIR       7   3  84 S3        30.40F
$$



USA.gov is the U.S. government's official web portal to all federal, state and local government web resources and services.